Philip Billard Municipal Airport Topeka US
ICAO: KTOP
IATA: TOP
Category: Medium
Scheduled Services: No

Elevation: 881 ft
TransAlt. 18000 ft.

Airport Communications:
ASOS:121.275
CLNC DEL:121.9
KANSAS CITY CNTR:123.8
CTAF:118.7
GND:121.9
WICHITA RDO:122.45
TOPEKA TWR:118.7
UNICOM:122.95

KTOP Zoom In..

Runways:

(A) RW 04 length 3001 ft width 100 ft
---- / hdg 44

(B) RW 13 length 5099 ft width 100 ft
ILS 110.70 / hdg 129

(C) RW 18 length 4331 ft width 75 ft
---- / hdg 177

(D) RW 22 length 3001 ft width 100 ft
---- / hdg 224

(E) RW 31 length 5099 ft width 100 ft
---- / hdg 309

(F) RW 36 length 4331 ft width 75 ft
---- / hdg 357

Location; KTOP
Day. 04 / Time. 03.53 Zulu
* Altimeter: 30.14
* Temperature: -01° c. -30.2°f.
* Wind from: KTO° Speed P kn.
Dewpoint: -06° c.
Visibility: 10 Statute Miles.
Clouds: Clear (automated report).

KTOP 040353Z AUTO 00000KT 10SM CLR M01/M06 A3014 RMK AO2 SLP214 T10111056

Going to: --> -->


Wind From KTO°
Speed P kn.

 
 
jpsmedia worldairports.se 2020   terms of use